TimeCST,TemperatureF,Dew PointF,Humidity,Sea Level PressureIn,VisibilityMPH,Wind Direction,Wind SpeedMPH,Gust SpeedMPH,PrecipitationIn,Events,Conditions,WindDirDegrees,DateUTC
12:11 AM,19.4,15.8,86,29.98,10.0,SSW,10.4,-,N/A,,Overcast,210,2013-01-02 06:11:00
12:32 AM,19.4,15.8,86,29.97,10.0,SSW,9.2,-,N/A,,Overcast,210,2013-01-02 06:32:00
12:51 AM,19.4,15.8,86,29.96,10.0,SW,9.2,-,N/A,,Overcast,220,2013-01-02 06:51:00
1:11 AM,19.4,15.8,86,29.96,10.0,SSW,3.5,-,N/A,,Overcast,200,2013-01-02 07:11:00
1:32 AM,19.4,15.8,86,29.95,10.0,South,4.6,-,N/A,,Overcast,190,2013-01-02 07:32:00
1:51 AM,19.4,15.8,86,29.95,7.0,South,6.9,-,N/A,,Overcast,190,2013-01-02 07:51:00
2:11 AM,19.4,15.8,86,29.95,7.0,South,6.9,-,N/A,,Overcast,190,2013-01-02 08:11:00
2:32 AM,19.4,15.8,86,29.95,10.0,South,5.8,-,N/A,,Overcast,190,2013-01-02 08:32:00
2:51 AM,19.4,15.8,86,29.95,10.0,South,6.9,-,N/A,,Overcast,180,2013-01-02 08:51:00
3:11 AM,19.4,15.8,86,29.95,10.0,South,6.9,-,N/A,,Overcast,180,2013-01-02 09:11:00
3:32 AM,19.4,15.8,86,29.94,10.0,South,5.8,-,N/A,,Overcast,170,2013-01-02 09:32:00
3:51 AM,19.4,15.8,86,29.93,7.0,South,5.8,-,N/A,,Overcast,170,2013-01-02 09:51:00
4:11 AM,19.4,15.8,86,29.92,7.0,South,8.1,-,N/A,,Overcast,170,2013-01-02 10:11:00
4:31 AM,19.4,15.8,86,29.92,7.0,South,6.9,-,N/A,,Overcast,170,2013-01-02 10:31:00
4:51 AM,19.4,15.8,86,29.92,7.0,South,6.9,-,N/A,,Overcast,180,2013-01-02 10:51:00
5:11 AM,19.4,15.8,86,29.92,7.0,South,4.6,-,N/A,,Overcast,170,2013-01-02 11:11:00
5:31 AM,19.4,15.8,86,29.92,7.0,South,5.8,-,N/A,,Overcast,180,2013-01-02 11:31:00
6:11 AM,19.4,15.8,86,29.91,7.0,South,4.6,-,N/A,,Overcast,190,2013-01-02 12:11:00
6:31 AM,19.4,15.8,86,29.91,7.0,South,6.9,-,N/A,,Overcast,180,2013-01-02 12:31:00
6:51 AM,19.4,15.8,86,29.91,7.0,South,9.2,-,N/A,,Overcast,170,2013-01-02 12:51:00
7:11 AM,17.6,15.8,93,29.91,7.0,South,8.1,-,N/A,,Overcast,170,2013-01-02 13:11:00
7:31 AM,17.6,15.8,93,29.92,5.0,South,9.2,-,N/A,,Overcast,180,2013-01-02 13:31:00
7:51 AM,17.6,15.8,93,29.92,5.0,South,8.1,-,N/A,,Overcast,170,2013-01-02 13:51:00
8:11 AM,17.6,15.8,93,29.92,5.0,South,6.9,-,N/A,,Overcast,180,2013-01-02 14:11:00
8:31 AM,17.6,15.8,93,29.93,4.0,SSW,5.8,-,N/A,,Overcast,200,2013-01-02 14:31:00
9:11 AM,17.6,15.8,93,29.93,3.0,South,8.1,-,N/A,,Overcast,180,2013-01-02 15:11:00
9:31 AM,15.8,14.0,93,29.94,2.5,South,8.1,-,N/A,,Overcast,170,2013-01-02 15:31:00
9:51 AM,17.6,15.8,93,29.94,3.0,South,6.9,-,N/A,,Overcast,170,2013-01-02 15:51:00
10:11 AM,15.8,14.0,93,29.94,3.0,South,8.1,-,N/A,,Overcast,170,2013-01-02 16:11:00
10:31 AM,15.8,14.0,93,29.94,2.5,SSE,9.2,-,N/A,,Overcast,150,2013-01-02 16:31:00
10:51 AM,17.6,15.8,93,29.94,2.5,SSE,8.1,-,N/A,Snow,Light Snow,160,2013-01-02 16:51:00
11:11 AM,17.6,14.0,86,29.93,1.8,SSE,9.2,-,N/A,Snow,Light Snow,160,2013-01-02 17:11:00
11:31 AM,17.6,14.0,86,29.93,2.5,South,6.9,-,N/A,Snow,Light Snow,170,2013-01-02 17:31:00
11:51 AM,17.6,14.0,86,29.93,4.0,South,6.9,-,N/A,Snow,Light Snow,170,2013-01-02 17:51:00
12:11 PM,17.6,14.0,86,29.92,4.0,South,5.8,-,N/A,Snow,Light Snow,170,2013-01-02 18:11:00
12:31 PM,17.6,14.0,86,29.91,3.0,South,5.8,-,N/A,Snow,Light Snow,170,2013-01-02 18:31:00
12:51 PM,17.6,14.0,86,29.91,3.0,SSE,8.1,-,N/A,Snow,Light Snow,160,2013-01-02 18:51:00
1:11 PM,17.6,14.0,86,29.92,4.0,SSE,6.9,-,N/A,,Overcast,160,2013-01-02 19:11:00
1:31 PM,17.6,14.0,86,29.92,4.0,SSE,5.8,-,N/A,,Overcast,160,2013-01-02 19:31:00
1:51 PM,19.4,15.8,86,29.91,5.0,SSE,6.9,-,N/A,,Overcast,150,2013-01-02 19:51:00
2:11 PM,19.4,15.8,86,29.92,5.0,South,3.5,-,N/A,,Overcast,170,2013-01-02 20:11:00
2:31 PM,19.4,15.8,86,29.93,7.0,SSE,5.8,-,N/A,,Overcast,160,2013-01-02 20:31:00
2:51 PM,19.4,15.8,86,29.93,7.0,South,3.5,-,N/A,,Overcast,170,2013-01-02 20:51:00
3:11 PM,19.4,15.8,86,29.94,5.0,South,5.8,-,N/A,,Overcast,180,2013-01-02 21:11:00
3:31 PM,19.4,15.8,86,29.94,5.0,South,3.5,-,N/A,,Overcast,190,2013-01-02 21:31:00
3:51 PM,19.4,15.8,86,29.95,5.0,Calm,Calm,-,N/A,,Overcast,0,2013-01-02 21:51:00
4:11 PM,19.4,15.8,86,29.96,7.0,South,3.5,-,N/A,,Overcast,180,2013-01-02 22:11:00
4:31 PM,19.4,15.8,86,29.96,7.0,South,3.5,-,N/A,,Overcast,190,2013-01-02 22:31:00
4:51 PM,19.4,15.8,86,29.96,7.0,Calm,Calm,-,N/A,,Overcast,0,2013-01-02 22:51:00
5:11 PM,19.4,15.8,86,29.97,7.0,Calm,Calm,-,N/A,,Overcast,0,2013-01-02 23:11:00
5:31 PM,19.4,15.8,86,29.97,5.0,Calm,Calm,-,N/A,,Overcast,0,2013-01-02 23:31:00
5:52 PM,19.4,15.8,86,29.98,5.0,WSW,3.5,-,N/A,,Overcast,240,2013-01-02 23:52:00
6:11 PM,19.4,15.8,86,29.98,5.0,Calm,Calm,-,N/A,,Overcast,0,2013-01-03 00:11:00
6:31 PM,19.4,17.6,93,29.98,5.0,Calm,Calm,-,N/A,,Overcast,0,2013-01-03 00:31:00
6:52 PM,19.4,17.6,93,29.99,5.0,Calm,Calm,-,N/A,,Overcast,0,2013-01-03 00:52:00
7:11 PM,19.4,17.6,93,29.99,4.0,Calm,Calm,-,N/A,,Overcast,0,2013-01-03 01:11:00
7:31 PM,19.4,17.6,93,29.99,3.0,Calm,Calm,-,N/A,,Overcast,0,2013-01-03 01:31:00
7:51 PM,19.4,17.6,93,30.00,3.0,Calm,Calm,-,N/A,,Overcast,0,2013-01-03 01:51:00
8:11 PM,19.4,17.6,93,30.00,4.0,Calm,Calm,-,N/A,,Overcast,0,2013-01-03 02:11:00
8:31 PM,19.4,17.6,93,30.01,4.0,Calm,Calm,-,N/A,,Overcast,0,2013-01-03 02:31:00
8:51 PM,19.4,17.6,93,30.01,4.0,Calm,Calm,-,N/A,,Overcast,0,2013-01-03 02:51:00
9:11 PM,19.4,17.6,93,30.01,4.0,WSW,3.5,-,N/A,,Overcast,240,2013-01-03 03:11:00
9:31 PM,19.4,17.6,93,30.02,5.0,West,6.9,-,N/A,Snow,Light Snow,270,2013-01-03 03:31:00
9:51 PM,21.2,17.6,86,30.02,7.0,West,11.5,-,N/A,Snow,Light Snow,280,2013-01-03 03:51:00
10:11 PM,19.4,17.6,93,30.03,7.0,West,6.9,-,N/A,Snow,Light Snow,270,2013-01-03 04:11:00
10:32 PM,19.4,15.8,86,30.04,7.0,West,8.1,-,N/A,Snow,Light Snow,280,2013-01-03 04:32:00
10:51 PM,19.4,15.8,86,30.04,7.0,West,9.2,-,N/A,Snow,Light Snow,270,2013-01-03 04:51:00
11:11 PM,19.4,15.8,86,30.05,10.0,West,9.2,-,N/A,Snow,Light Snow,280,2013-01-03 05:11:00
11:31 PM,19.4,15.8,86,30.05,10.0,West,8.1,-,N/A,Snow,Light Snow,270,2013-01-03 05:31:00
11:51 PM,17.6,14.0,86,30.05,10.0,West,12.7,-,N/A,Snow,Light Snow,280,2013-01-03 05:51:00